ONEWEB-0295 (49084 NORAD) Tracking and Keplerian Element Data

This shows tracking and keplerian element data for the satellite.

Feedback or suggestion? Click here.




ElementValue
Catalog49084
NameONEWEB-0295
Epoch Orbit1129
Epoch Day300.91667824
Epoch Year2021
RAAN344.3269
Inclination87.5451
Eccentricity0.0023669
Argument of Perigee69.4103
Mean Anonmoly93.446
Mean Motion14.29328263
Decay Rate-0.01361909
L11 49084U 21075K 21300.91667824 -.01361909 00000-0 -57524+0 0 9992
L22 49084 87.5451 344.3269 0023669 69.4103 93.4460 14.29328263 11296

Live tracking and technical data element details for ONEWEB-0295 (NORAD 49084). ONEWEB-0295 can be tracked NOW for your location showing map with azimuth and elevation plus other details from your city location.

Track the satellite on the map from your city or location and see movement details for azimuth, elevation, latitude, longitude, range, height, and movement on the map or in text.







IsCatalogInMostPopularTable: catalog: 49084, numindb: 12
Update: records affected: 1



GetName: 49084 ONEWEB-0295

Hit Count: updated at: Thu, 28 Oct 2021 10:18:48 GMT